Columbus AFB, MS

2:41 AM CDT on July 25, 2017 (GMT -0500)
Columbus Air Force Base

Weather History for KCBM - May, 2013

Change the Weather History Date:

Tuesday, May 7, 2013

  Actual Average Record
Temperature  
Mean Temperature 60 °F -  
Max Temperature 73 °F 79 °F 91 °F (2015)
Min Temperature 48 °F 57 °F 47 °F (2016)
Degree Days  
Heating Degree Days 5    
Growing Degree Days 10 (Base 50)    
Moisture  
Dew Point 54 °F    
Average Humidity 90    
Maximum Humidity 100    
Minimum Humidity 52    
Precipitation  
Precipitation 0.01 in - - ()
Sea Level Pressure  
Sea Level Pressure 29.99 in    
Wind  
Wind Speed 3 mph (NW)    
Max Wind Speed 8 mph    
Max Gust Speed -    
Visibility 8 miles    
Events Fog    
Averages and records for this station are not official NWS values.
T = Trace of Precipitation, MM = Missing Value Source: NWS Daily Summary

Daily Weather History Graph

Daily Weather History Graph

Search for Another Location

Airport or City:

Trip Planner

Search our weather history database for the weather conditions in past years. The results will help you decide how hot, cold, wet, or windy it might be!

Date:

Astronomy

May. 07, 2013 Rise Set
Actual Time 5:59 AM CDT 7:41 PM CDT
Civil Twilight 5:32 AM CDT 8:08 PM CDT
Nautical Twilight 4:59 AM CDT 8:41 PM CDT
Astronomical Twilight 4:25 AM CDT 9:15 PM CDT
Moon 4:27 AM CDT (5/7) 5:46 PM CDT (5/7)
Length of Visible Light 14h 36m
Length of Day
13h 42m
Waning Crescent, 5% of the Moon is Illuminated
May 7
Waning Crescent
May 9
New
May 17
First Quarter
May 24
Full
May 31
Last Quarter

Hourly Weather History & Observations

Time (CDT) Temp. Dew Point Humidity Pressure Visibility Wind Dir Wind Speed Gust Speed Precip Events Conditions
12:58 AM 53.1 °F 53.1 °F 100% 29.96 in 10.0 mi West 2.3 mph - N/A   Mostly Cloudy
1:38 AM 53.6 °F 53.6 °F 100% 29.94 in 1.2 mi Calm Calm - N/A   Clear
1:43 AM 53.6 °F 53.6 °F 100% 29.94 in 1.0 mi Calm Calm - N/A   Clear
1:48 AM 51.8 °F 51.8 °F 100% 29.94 in 2.5 mi Calm Calm - N/A   Clear
1:53 AM 51.8 °F 51.8 °F 100% 29.94 in 6.0 mi Calm Calm - N/A   Clear
1:58 AM 52.5 °F 52.5 °F 100% 29.95 in 7.0 mi Calm Calm - N/A   Partly Cloudy
2:23 AM 51.8 °F 51.8 °F 100% 29.93 in 4.0 mi Calm Calm - N/A   Partly Cloudy
2:28 AM 51.8 °F 51.8 °F 100% 29.93 in 5.0 mi Calm Calm - N/A   Partly Cloudy
2:33 AM 50.0 °F 50.0 °F 100% 29.93 in 2.5 mi Calm Calm - N/A   Partly Cloudy
2:38 AM 50.0 °F 50.0 °F 100% 29.93 in 1.0 mi WNW 1.2 mph - N/A   Clear
2:43 AM 50.0 °F 50.0 °F 100% 29.93 in 1.2 mi WSW 2.3 mph - N/A   Clear
2:48 AM 48.2 °F 48.2 °F 100% 29.93 in 5.0 mi West 2.3 mph - N/A   Clear
2:58 AM 49.3 °F 49.3 °F 100% 29.94 in 10.0 mi West 2.3 mph - N/A   Clear
3:13 AM 48.2 °F 48.2 °F 100% 29.93 in 1.2 mi WNW 1.2 mph - N/A   Clear
3:18 AM 48.2 °F 48.2 °F 100% 29.92 in 0.8 mi Calm Calm - N/A   Clear
3:23 AM 50.0 °F 50.0 °F 100% 29.92 in 0.5 mi NNE 1.2 mph - N/A Fog Fog
3:33 AM 48.2 °F 48.2 °F 100% 29.92 in 0.5 mi North 1.2 mph - N/A Fog Fog
3:53 AM 48.2 °F 48.2 °F 100% 29.93 in 0.2 mi Calm Calm - N/A Fog Fog
3:58 AM 48.6 °F 48.6 °F 100% 29.94 in 0.2 mi NW 1.2 mph - N/A Fog Fog
4:18 AM 48.2 °F 48.2 °F 100% 29.92 in 0.5 mi North 4.6 mph - N/A Fog Fog
4:23 AM 48.2 °F 48.2 °F 100% 29.92 in 0.8 mi North 5.8 mph - N/A   Clear
4:28 AM 48.2 °F 48.2 °F 100% 29.92 in 1.5 mi North 6.9 mph - N/A   Clear
4:33 AM 50.0 °F 50.0 °F 100% 29.92 in 5.0 mi North 8.1 mph - N/A   Clear
4:58 AM 52.7 °F 52.7 °F 100% 29.93 in 10.0 mi North 6.9 mph - N/A   Clear
5:23 AM 51.8 °F 51.8 °F 100% 29.94 in 7.0 mi SW 5.8 mph - N/A   Partly Cloudy
5:33 AM 50.0 °F 50.0 °F 100% 29.94 in 10.0 mi West 3.5 mph - N/A   Mostly Cloudy
5:58 AM 52.7 °F 52.7 °F 100% 29.97 in 8.0 mi WSW 5.8 mph - N/A   Overcast
6:13 AM 53.6 °F 53.6 °F 100% 29.97 in 10.0 mi WSW 5.8 mph - N/A   Overcast
6:23 AM 53.6 °F 53.6 °F 100% 29.98 in 10.0 mi WSW 4.6 mph - N/A   Overcast
6:43 AM 53.6 °F 53.6 °F 100% 29.99 in 10.0 mi WSW 2.3 mph - N/A   Overcast
6:48 AM 53.6 °F 53.6 °F 100% 29.99 in 10.0 mi WSW 2.3 mph - N/A   Overcast
6:58 AM 53.8 °F 53.8 °F 100% 30.01 in 9.0 mi SW 3.5 mph - 0.01 in   Overcast
7:33 AM 55.4 °F 55.4 °F 100% 30.01 in 10.0 mi WSW 2.3 mph - N/A   Overcast
7:38 AM 55.4 °F 55.4 °F 100% 30.01 in 10.0 mi WSW 2.3 mph - N/A   Overcast
7:43 AM 55.4 °F 55.4 °F 100% 30.01 in 10.0 mi WSW 3.5 mph - N/A   Overcast
7:58 AM 55.4 °F 55.4 °F 100% 30.03 in 10.0 mi West 4.6 mph - N/A   Overcast
8:53 AM 59.0 °F 59.0 °F 100% 30.02 in 10.0 mi NW 4.6 mph - N/A   Mostly Cloudy
8:58 AM 58.6 °F 58.6 °F 100% 30.03 in 10.0 mi NNW 6.9 mph - N/A   Mostly Cloudy
9:03 AM 59.0 °F 59.0 °F 100% 30.02 in 10.0 mi North 8.1 mph - N/A   Mostly Cloudy
9:08 AM 59.0 °F 59.0 °F 100% 30.02 in 10.0 mi North 5.8 mph - N/A   Scattered Clouds
9:13 AM 59.0 °F 59.0 °F 100% 30.02 in 10.0 mi North 6.9 mph - N/A   Mostly Cloudy
9:18 AM 60.8 °F 60.8 °F 100% 30.03 in 10.0 mi NNE 6.9 mph - N/A   Mostly Cloudy
9:23 AM 60.8 °F 60.8 °F 100% 30.03 in 10.0 mi NNE 8.1 mph - N/A   Mostly Cloudy
9:48 AM 60.8 °F 57.2 °F 88% 30.03 in 10.0 mi NNE 4.6 mph - N/A   Overcast
9:58 AM 61.0 °F 55.6 °F 82% 30.04 in 10.0 mi NNE 5.8 mph - N/A   Overcast
10:08 AM 60.8 °F 55.4 °F 82% 30.03 in 10.0 mi North 5.8 mph - N/A   Overcast
10:13 AM 60.8 °F 55.4 °F 82% 30.04 in 10.0 mi Variable 2.3 mph - N/A   Overcast
10:23 AM 62.6 °F 55.4 °F 77% 30.04 in 10.0 mi NNW 5.8 mph - N/A   Overcast
10:48 AM 62.6 °F 53.6 °F 72% 30.04 in 10.0 mi NNW 4.6 mph - N/A   Overcast
10:53 AM 62.6 °F 55.4 °F 77% 30.04 in 10.0 mi Variable 2.3 mph - N/A   Overcast
10:58 AM 62.6 °F 55.4 °F 77% 30.05 in 10.0 mi North 8.1 mph - N/A   Overcast
11:03 AM 62.6 °F 53.6 °F 72% 30.04 in 10.0 mi North 6.9 mph - N/A   Overcast
11:43 AM 64.4 °F 55.4 °F 73% 30.04 in 10.0 mi North 8.1 mph - N/A   Overcast
11:58 AM 65.3 °F 55.2 °F 70% 30.05 in 10.0 mi North 8.1 mph - N/A   Mostly Cloudy
12:13 PM 64.4 °F 55.4 °F 73% 30.04 in 10.0 mi Variable 4.6 mph - N/A   Overcast
12:18 PM 64.4 °F 55.4 °F 73% 30.04 in 10.0 mi Variable 3.5 mph - N/A   Overcast
12:23 PM 66.2 °F 55.4 °F 68% 30.03 in 10.0 mi NW 8.1 mph - N/A   Overcast
12:38 PM 66.2 °F 55.4 °F 68% 30.03 in 10.0 mi NE 5.8 mph - N/A   Mostly Cloudy
12:53 PM 66.2 °F 55.4 °F 68% 30.03 in 10.0 mi Variable 1.2 mph - N/A   Mostly Cloudy
12:58 PM 66.6 °F 55.2 °F 67% 30.04 in 10.0 mi WNW 3.5 mph - N/A   Scattered Clouds
1:58 PM 69.3 °F 56.1 °F 63% 30.03 in 10.0 mi Variable 4.6 mph - N/A   Clear
2:58 PM 71.6 °F 53.1 °F 52% 30.01 in 10.0 mi NW 5.8 mph - N/A   Partly Cloudy
3:58 PM 72.0 °F 53.4 °F 52% 30.00 in 10.0 mi Variable 2.3 mph - N/A   Partly Cloudy
4:58 PM 72.3 °F 54.7 °F 54% 30.00 in 10.0 mi NNW 6.9 mph - N/A   Partly Cloudy
5:58 PM 72.7 °F 54.3 °F 52% 30.00 in 10.0 mi NNW 5.8 mph - N/A   Clear
6:58 PM 70.7 °F 55.8 °F 59% 30.00 in 10.0 mi North 2.3 mph - N/A   Clear
7:58 PM 65.3 °F 59.4 °F 81% 30.01 in 10.0 mi SSE 2.3 mph - N/A   Overcast
8:58 PM 61.5 °F 59.0 °F 91% 30.02 in 10.0 mi East 1.2 mph - N/A   Clear
9:58 PM 58.1 °F 57.9 °F 99% 30.03 in 10.0 mi Calm Calm - N/A   Clear
10:58 PM 56.5 °F 56.5 °F 100% 30.04 in 10.0 mi Calm Calm - N/A   Clear
11:58 PM 54.9 °F 54.9 °F 100% 30.04 in 10.0 mi SE 2.3 mph - N/A   Clear